GFSFLT2_850_spd_120.txt.gz
Wind_Speed
29 31 30 31 31 28 28 29 32 32 29 29 20 19 25 30 41 45 44 48 52 50 50 45 47 45 46
29 31 29 28 29 29 29 27 26 28 31 29 27 26 15 22 22 38 44 49 49 48 48 44 45 46 43
30 30 31 30 31 30 31 31 26 24 21 27 31 32 23 10 16 18 22 40 48 47 45 43 42 41 43
28 30 30 31 32 35 37 35 35 30 22 20 23 30 33 26 16 8 17 20 28 33 39 45 44 41 40
27 26 34 35 34 35 36 39 38 31 31 31 27 24 24 33 33 19 9 12 25 30 32 36 38 39 40
27 29 32 32 33 33 34 37 36 33 41 39 34 30 27 23 24 32 25 18 11 16 31 36 39 40 43
26 27 29 28 29 31 32 32 34 37 35 39 34 32 27 23 21 19 28 26 20 16 14 24 34 38 44
23 25 25 26 27 30 33 33 33 31 28 32 29 26 26 19 13 11 15 22 26 25 22 18 23 30 36
22 23 25 25 26 29 30 29 33 31 29 16 25 35 35 27 16 15 9 13 21 27 29 27 23 24 32
28 28 28 28 24 23 24 25 27 28 23 26 26 27 25 28 12 16 19 19 16 23 26 27 25 24 27
32 31 30 26 25 23 23 24 25 28 24 22 26 26 25 33 39 30 27 23 22 18 22 25 23 20 16
31 30 28 28 27 26 25 25 23 23 23 20 25 26 29 33 39 35 32 26 22 18 16 16 18 16 14
28 29 27 28 27 27 25 23 22 21 21 22 25 26 25 29 33 36 33 29 23 17 14 14 9 11 12
26 27 27 28 26 24 25 24 23 23 19 20 22 24 28 28 27 34 29 26 24 18 14 15 12 12 9
25 26 26 23 25 27 24 22 22 24 24 21 20 23 24 26 28 29 27 28 28 23 19 20 17 11 13
25 26 26 28 29 25 21 22 24 23 24 20 21 22 23 18 17 23 24 23 21 18 18 21 23 19 13
26 27 26 26 24 21 19 21 22 22 21 17 19 21 25 26 23 14 18 19 18 19 17 16 19 21 18

GFSFLT2_850_spd_123.txt.gz
Wind_Speed
25 26 28 28 27 27 26 26 26 25 25 25 29 29 27 31 31 20 29 42 50 51 47 52 52 53 54
24 27 28 29 27 27 28 26 26 24 25 24 25 28 31 29 36 35 23 17 29 50 53 51 51 52 52
23 25 27 28 30 29 28 29 30 28 23 21 24 27 28 29 32 37 35 27 11 24 42 52 52 55 54
20 20 22 26 29 29 32 30 32 31 26 26 27 27 27 27 26 34 42 34 22 12 30 43 48 54 56
20 21 20 23 25 27 27 34 29 20 28 35 34 30 27 26 25 24 29 35 32 20 14 11 34 48 53
21 22 24 24 23 25 29 27 28 23 33 40 35 34 29 26 25 23 22 22 31 30 22 15 10 31 38
23 24 24 22 24 26 26 28 30 35 31 31 33 32 29 28 24 16 16 23 20 29 30 23 16 11 28
24 24 23 23 22 25 27 29 30 30 26 26 30 23 35 30 25 19 21 20 18 19 24 31 24 18 15
23 23 23 23 25 27 24 25 30 32 30 20 22 32 34 31 23 17 20 25 27 21 21 24 27 26 23
27 30 31 30 26 22 23 23 22 24 18 22 25 23 23 26 34 31 28 27 22 22 21 22 23 25 26
29 31 30 26 23 22 22 23 25 27 28 22 27 26 17 28 38 37 34 31 27 22 18 18 19 21 24
27 26 23 23 23 24 23 22 23 25 25 22 25 25 25 31 37 40 38 34 29 25 20 17 14 14 22
24 24 26 27 26 25 24 22 21 20 19 20 22 24 25 28 34 40 37 36 26 14 17 18 16 14 15
26 27 27 27 23 20 22 26 26 23 16 17 18 20 23 26 29 36 33 31 31 25 24 21 17 15 12
26 27 27 25 22 25 27 25 21 23 22 18 18 18 20 25 28 31 28 24 22 23 22 22 17 16 14
25 26 27 27 27 26 24 21 22 22 23 19 20 19 22 25 19 21 22 22 21 21 20 22 20 14 16
26 26 26 26 25 25 26 25 22 26 24 22 20 20 23 24 26 22 17 19 23 24 22 21 21 16 14

GFSFLT2_850_spd_126.txt.gz
Wind_Speed
18 19 22 23 24 24 24 24 23 23 21 23 25 25 26 28 28 30 34 31 28 26 41 52 51 48 49
19 20 19 20 23 25 26 23 24 25 23 23 22 24 26 28 28 28 28 35 30 29 25 29 47 57 54
20 19 20 18 21 24 23 24 23 26 26 21 21 24 26 28 28 27 28 29 34 33 35 30 20 46 57
18 19 18 18 19 20 22 20 25 25 22 25 27 27 25 26 26 25 26 26 28 34 33 37 29 19 44
19 19 19 19 19 20 22 26 26 22 23 22 28 27 27 26 25 26 26 20 24 27 33 39 36 27 19
20 21 21 20 20 21 25 26 29 19 24 28 23 26 25 25 26 28 27 26 26 27 28 30 37 35 28
22 22 23 21 23 25 24 26 28 27 26 30 25 24 24 23 28 27 26 27 28 31 32 30 30 34 33
20 23 24 25 26 27 29 30 28 24 21 30 26 25 23 29 28 25 24 28 29 30 31 32 31 28 34
22 25 24 24 24 27 27 26 28 24 22 22 20 28 31 31 21 24 30 30 31 29 29 29 29 31 28
25 25 22 22 23 21 21 24 26 27 14 19 29 24 26 23 17 31 32 36 34 32 29 26 25 25 24
22 21 20 19 17 17 19 22 26 29 27 23 29 28 25 34 33 34 35 37 38 33 30 25 22 21 23
20 19 18 19 19 20 23 25 25 28 29 25 28 28 29 32 35 34 35 37 36 33 24 21 25 21 20
18 19 21 23 24 26 24 22 25 26 25 23 22 25 27 31 35 36 32 40 31 25 29 26 25 24 21
19 20 21 22 23 22 23 23 25 28 24 20 21 22 24 27 28 32 33 32 34 28 26 26 24 21 20
19 21 22 21 22 22 23 24 25 25 25 20 20 20 23 25 26 27 26 27 27 28 27 28 25 22 19
23 25 25 25 25 24 23 23 24 25 25 22 22 22 23 23 22 26 25 27 26 30 28 30 29 24 19
23 24 24 25 24 24 24 23 23 23 24 24 22 21 23 26 26 18 23 29 34 31 24 23 26 27 23

GFSFLT2_850_spd_129.txt.gz
Wind_Speed
21 22 23 21 20 20 22 22 20 19 19 18 20 22 21 22 24 26 27 29 30 30 30 31 32 34 35
23 23 24 22 22 22 23 19 20 19 20 21 19 17 19 22 23 24 26 28 28 28 29 30 31 32 32
24 24 23 23 23 23 23 23 23 21 26 23 16 20 23 22 22 24 24 26 29 30 30 29 30 33 33
22 23 22 23 20 22 25 26 25 29 26 17 21 26 26 23 23 22 24 26 27 30 30 30 30 31 35
21 21 23 21 22 24 26 25 33 28 26 19 29 31 28 27 24 22 26 27 26 28 31 31 32 32 32
22 23 23 23 23 22 27 33 31 28 23 36 33 32 30 27 26 25 28 28 26 28 29 31 33 36 34
25 25 25 25 28 30 29 30 34 36 33 35 32 35 33 26 23 28 31 27 26 29 31 32 33 35 37
23 26 28 28 27 28 31 34 37 35 26 32 30 37 25 30 35 29 21 23 27 30 32 32 33 35 36
22 24 25 25 26 29 30 31 34 32 26 30 33 30 37 41 30 21 20 28 27 31 30 32 32 33 36
27 28 25 24 23 22 26 27 29 31 23 22 29 33 33 29 16 27 35 32 29 29 32 31 30 31 31
29 22 22 24 21 20 23 25 29 33 31 25 32 34 32 39 40 37 35 32 35 35 33 28 26 25 32
22 23 22 22 24 24 26 28 30 34 31 26 30 32 34 37 39 39 36 36 33 35 31 31 30 27 24
22 22 24 24 26 28 27 26 27 27 27 28 31 32 31 34 40 38 34 36 29 28 33 33 33 30 30
23 24 24 25 26 25 27 28 28 31 30 29 25 25 29 30 31 37 35 34 33 30 30 30 32 30 30
23 24 25 24 25 25 28 27 28 32 32 29 27 28 29 33 34 33 33 32 29 31 31 37 38 31 27
22 23 24 25 26 26 26 27 30 31 32 31 29 30 32 30 25 29 27 32 32 33 35 38 39 32 27
22 23 24 25 24 27 28 28 30 31 32 30 28 26 30 32 31 23 24 30 33 38 35 34 36 34 29

GFSFLT2_850_spd_132.txt.gz
Wind_Speed
23 22 22 22 22 21 21 21 19 17 17 17 18 20 19 18 19 21 22 22 23 23 23 23 22 23 23
25 24 23 23 23 23 22 20 20 22 16 19 22 17 16 16 20 21 21 22 23 22 23 24 25 26 25
27 25 25 23 21 22 21 24 26 24 23 26 18 16 16 24 21 20 22 23 24 25 26 26 28 27 28
26 27 25 22 22 21 27 27 28 27 28 22 18 18 26 25 22 22 21 21 25 26 25 27 29 29 27
26 25 26 26 22 24 28 31 33 31 26 21 27 30 28 25 24 23 22 21 24 27 26 27 28 30 30
24 25 27 27 24 26 30 34 36 28 29 37 34 33 29 30 27 25 20 24 30 25 24 26 29 31 32
26 26 27 26 26 30 29 30 32 33 34 38 33 33 32 32 30 24 29 31 24 21 24 29 29 31 33
21 24 23 24 25 27 30 32 34 34 30 36 31 33 33 31 31 33 29 20 21 24 30 28 29 31 33
19 21 23 25 24 27 28 30 35 34 28 28 29 34 37 37 32 25 21 21 26 33 28 28 30 31 34
23 24 25 27 22 21 27 27 28 29 18 26 36 33 27 33 21 31 36 34 30 28 26 29 28 31 30
28 29 27 23 22 23 22 24 29 33 32 31 38 35 29 35 43 38 36 34 33 34 30 28 26 26 33
28 30 25 24 24 24 26 27 28 31 28 25 31 31 33 38 41 41 39 36 36 34 32 26 30 29 28
27 25 25 25 27 28 27 26 26 27 27 26 28 30 31 35 40 40 38 37 36 33 33 30 30 29 34
23 26 25 25 25 25 26 28 30 31 26 25 26 26 30 31 34 41 39 41 44 36 32 33 32 32 36
23 26 26 25 27 27 27 27 29 33 33 30 27 27 28 30 34 37 40 38 33 32 32 35 37 39 38
24 25 26 26 27 26 25 27 30 32 33 31 30 31 32 33 28 32 31 33 33 33 33 39 46 40 36
23 24 24 24 25 25 26 28 31 33 34 33 30 30 33 37 36 26 29 31 33 38 40 39 41 41 39

GFSFLT2_850_spd_135.txt.gz
Wind_Speed
25 23 23 22 20 20 18 18 16 15 16 15 15 17 14 12 14 15 17 18 19 21 20 21 21 21 22
26 25 23 22 22 21 19 17 18 22 20 17 18 15 15 15 15 19 19 20 21 22 23 22 22 22 23
27 27 27 25 23 21 20 19 22 23 22 23 19 15 15 15 21 21 20 21 21 19 22 22 22 25 25
27 28 28 25 23 23 25 23 25 24 23 19 17 16 23 23 20 19 20 20 22 22 24 25 26 25 26
26 26 26 22 22 24 25 26 28 23 20 19 23 22 20 20 20 19 20 21 18 21 25 27 26 26 28
24 25 26 23 23 24 26 28 30 24 28 28 25 26 22 21 21 21 21 20 22 27 27 22 23 26 28
25 26 28 26 22 22 23 26 28 30 29 34 28 28 23 22 22 23 23 24 25 21 20 23 25 28 29
24 24 22 19 19 22 25 29 31 30 28 34 30 27 28 28 25 21 20 20 21 23 25 27 33 31 31
23 23 20 20 21 23 28 27 28 30 27 26 24 34 37 32 22 18 22 24 27 29 31 32 29 29 34
24 20 21 23 22 24 22 23 27 27 21 24 31 25 23 26 15 33 30 27 25 26 27 27 27 28 33
27 27 27 25 23 21 20 23 23 26 27 27 30 30 29 35 38 37 34 32 33 32 28 25 25 25 28
30 29 27 26 22 21 22 23 26 29 28 26 31 30 31 36 40 38 37 37 35 35 31 27 27 29 29
29 29 24 22 23 24 25 25 26 26 26 26 26 26 26 32 39 40 40 40 36 29 34 36 35 31 33
24 23 23 25 25 24 24 24 27 26 23 22 23 23 27 30 34 40 38 37 40 37 35 35 33 32 34
22 25 26 26 25 25 25 26 27 28 28 25 23 23 26 29 35 37 39 38 36 35 33 36 36 35 33
26 27 26 25 26 25 23 24 28 29 31 30 28 28 29 32 31 35 34 36 35 33 34 38 45 38 38
25 23 23 24 23 24 24 25 28 29 31 30 29 31 36 36 36 29 31 34 37 39 39 40 42 44 39

GFSFLT2_850_spd_138.txt.gz
Wind_Speed
26 24 23 22 20 20 19 18 17 14 13 12 12 13 12 9 10 15 11 12 15 16 18 20 20 19 18
26 25 25 24 23 22 21 19 18 18 18 16 15 15 10 11 13 13 16 17 16 17 19 21 21 21 22
28 28 27 25 24 22 21 20 20 21 21 20 16 12 13 14 18 18 16 16 15 15 17 17 20 21 23
27 29 28 26 23 21 21 20 21 19 17 13 10 12 17 16 15 15 16 17 18 18 14 18 21 20 19
27 27 27 24 22 21 22 23 23 19 14 15 18 16 16 15 14 14 14 15 16 14 17 20 21 21 20
25 26 26 27 23 23 21 21 24 21 24 26 21 19 17 17 15 15 16 17 18 20 22 21 18 19 21
28 28 27 25 24 22 19 21 24 26 28 32 25 24 20 16 17 18 18 18 18 19 20 20 23 26 28
28 27 25 23 20 18 21 24 28 30 27 30 29 27 23 23 19 17 14 14 17 19 22 24 27 29 31
24 23 22 21 20 22 24 27 32 31 26 28 27 28 31 26 16 10 17 19 21 22 24 25 27 28 29
25 25 23 21 21 22 24 27 27 28 17 18 26 28 18 27 16 31 28 24 24 22 24 26 27 29 32
27 28 27 24 24 23 23 26 25 28 28 27 31 28 28 35 38 36 33 30 30 28 27 27 27 27 31
30 32 33 29 24 25 22 22 24 28 28 28 32 30 31 35 39 38 36 35 33 33 32 27 26 27 28
33 32 31 27 23 23 23 24 26 27 27 26 28 28 28 32 39 39 37 38 35 29 34 34 34 33 35
32 30 27 24 24 24 26 26 25 27 23 21 21 21 25 28 32 38 37 38 38 36 36 36 35 35 36
27 27 25 25 27 27 28 26 27 27 24 22 20 22 25 27 34 36 39 39 36 35 34 38 36 36 37
24 23 25 28 29 29 26 24 25 26 26 24 24 26 28 30 31 37 36 37 36 34 35 40 44 40 39
24 25 27 27 25 26 26 25 26 26 25 24 23 26 33 37 35 27 34 33 37 40 40 42 45 44 39

GFSFLT2_850_spd_141.txt.gz
Wind_Speed
26 24 23 22 21 21 22 22 21 20 17 17 17 16 16 15 14 12 16 14 13 15 14 12 12 13 14
27 27 25 24 23 24 22 22 22 21 20 20 19 19 18 13 16 20 20 18 19 18 17 16 14 13 14
28 28 28 26 26 24 22 22 21 21 20 20 20 16 15 15 18 19 21 21 20 19 20 19 18 19 20
29 28 28 26 26 25 24 22 22 22 19 18 13 11 15 19 19 20 19 19 19 20 19 18 20 22 21
29 29 27 24 24 24 25 25 24 21 14 13 15 19 17 18 18 17 17 18 19 19 18 19 22 19 18
28 28 27 25 24 24 25 25 27 22 17 22 22 21 17 18 17 15 15 17 18 19 20 21 20 19 20
29 30 28 26 25 26 25 23 24 24 24 30 28 25 18 19 16 16 20 21 20 18 17 18 19 20 22
33 32 30 27 25 23 21 25 28 28 24 33 30 28 24 20 18 20 20 18 15 16 20 21 23 24 25
29 27 25 23 20 21 25 25 30 32 30 30 32 25 26 25 17 16 12 12 19 20 22 23 23 25 28
25 24 23 22 22 24 25 28 31 34 20 16 24 24 22 27 5 16 26 22 22 22 21 23 24 28 31
26 26 25 24 22 23 26 27 31 33 32 26 32 29 27 32 38 33 31 27 26 25 24 24 25 26 31
26 27 28 27 26 26 24 27 28 29 26 26 29 30 32 35 38 36 35 35 33 29 27 26 23 25 28
29 30 29 31 27 28 26 23 25 27 28 28 30 29 31 34 37 37 37 37 36 29 29 30 30 31 34
30 32 30 27 29 25 24 23 27 31 29 26 26 26 28 29 31 36 36 38 39 36 35 35 33 32 35
29 30 28 27 28 25 25 25 28 32 31 26 22 22 25 27 32 35 37 38 37 35 33 37 36 35 36
28 27 25 26 26 24 26 26 28 28 28 24 22 24 27 32 30 33 31 35 34 33 33 38 44 42 41
26 25 24 25 24 26 26 27 28 28 26 24 23 25 29 32 33 29 33 34 37 40 40 41 45 44 40

GFSFLT2_850_spd_144.txt.gz
Wind_Speed
25 24 24 22 22 22 22 23 23 22 21 20 21 21 21 21 17 13 12 15 15 16 14 11 8 9 7
27 27 27 25 23 23 22 22 22 21 21 20 20 21 21 20 18 21 21 19 16 17 16 16 14 12 9
29 28 28 27 26 25 23 22 22 22 23 23 22 21 20 20 17 22 20 20 20 21 18 19 18 14 13
30 30 29 27 26 26 25 23 23 22 23 23 21 17 15 16 20 23 23 22 20 19 17 19 15 15 17
32 32 31 27 25 24 26 25 25 25 20 14 16 15 18 20 22 21 22 22 20 20 19 17 15 16 17
33 34 31 28 23 23 24 26 28 24 20 22 21 21 20 22 21 20 20 21 21 20 21 20 20 18 14
34 33 29 26 23 25 26 26 27 23 24 30 27 25 22 21 20 21 19 19 21 23 23 22 21 20 21
37 34 30 30 28 27 26 25 26 27 24 28 27 30 27 23 18 17 21 23 22 19 19 20 22 22 23
34 28 32 31 27 24 25 23 26 28 26 26 33 28 22 25 21 18 17 15 12 13 22 23 23 24 26
30 26 29 27 24 22 23 28 29 26 22 19 24 25 22 25 6 3 4 17 25 23 23 22 22 25 28
27 26 27 27 25 26 28 27 28 30 32 29 31 27 26 30 33 30 27 23 23 23 21 22 23 25 28
26 28 27 25 23 27 25 23 26 30 28 28 28 26 27 33 35 34 32 29 27 26 24 22 22 20 23
31 31 28 26 25 25 25 24 26 28 27 24 26 27 29 33 36 37 34 32 29 25 23 25 25 26 29
31 30 28 28 28 28 25 25 25 28 25 25 26 28 31 32 32 35 32 32 31 30 30 31 29 28 28
30 31 30 29 29 28 27 25 27 28 28 26 28 27 26 26 30 33 34 34 32 31 28 32 32 31 30
31 29 29 30 28 27 23 24 26 28 29 28 24 24 26 29 29 32 30 30 28 28 29 35 39 36 35
27 27 26 27 26 25 24 25 28 28 29 26 24 22 26 32 31 27 30 28 30 34 34 36 40 39 35

GFSFLT2_850_spd_147.txt.gz
Wind_Speed
25 24 24 23 23 23 22 23 22 21 21 20 20 21 22 22 22 22 15 13 15 15 13 13 10 10 10
28 27 26 25 24 24 23 23 24 22 21 21 21 21 22 22 22 21 18 18 16 16 15 15 12 11 12
32 30 29 28 28 26 25 25 24 23 23 21 21 22 22 22 22 20 21 23 20 19 18 17 14 14 12
35 34 32 30 30 29 28 26 26 24 23 23 23 21 19 18 18 20 23 24 23 21 19 17 16 15 12
38 37 35 34 33 29 29 28 27 25 24 18 20 17 16 17 21 23 23 24 24 22 19 16 15 14 14
41 41 38 35 35 27 28 27 26 24 21 21 23 22 20 19 21 24 23 22 23 22 18 18 17 17 17
41 41 38 37 31 26 28 28 30 27 25 29 25 25 19 18 20 22 23 23 22 22 22 22 21 18 17
41 38 38 34 34 28 27 30 30 30 25 31 24 22 21 22 19 17 19 20 21 23 23 20 17 20 21
39 40 36 35 35 30 32 31 32 28 26 26 22 24 20 22 22 20 21 21 21 18 18 15 17 22 24
35 38 38 33 30 30 28 30 29 21 23 23 18 19 15 20 14 4 4 7 12 17 21 24 23 24 26
32 32 30 29 30 28 30 30 30 30 28 27 28 24 24 24 26 27 24 23 22 22 23 24 24 25 28
30 30 30 29 27 27 29 32 31 31 28 28 27 26 26 28 23 23 26 27 24 23 22 21 22 24 26
33 31 31 26 23 24 25 26 29 27 29 29 29 29 30 31 30 28 29 27 28 25 18 17 19 21 25
34 29 27 25 25 25 26 25 27 29 27 27 25 26 29 30 31 35 31 29 27 26 25 25 24 24 25
32 28 27 27 27 27 26 27 28 28 30 26 23 25 27 28 35 34 32 31 30 27 27 28 27 27 26
32 28 27 27 27 27 27 27 27 28 27 25 21 24 27 32 31 32 30 28 24 24 25 28 32 28 29
31 29 28 29 27 26 27 26 26 26 26 24 22 23 25 27 26 25 25 23 23 25 27 30 34 33 28

GFSFLT2_850_spd_153.txt.gz
Wind_Speed
39 36 38 40 35 33 32 31 31 29 28 27 27 27 26 26 25 25 25 25 23 18 19 17 17 14 15
42 41 40 39 40 38 36 35 34 31 29 30 30 29 28 28 27 27 27 26 25 21 20 22 17 16 16
47 43 42 40 42 42 41 39 37 35 32 31 32 32 30 30 28 27 28 28 26 22 24 22 21 20 17
46 46 44 42 41 42 45 44 42 37 33 32 33 31 31 31 29 28 28 28 26 25 25 24 23 22 21
45 44 41 41 44 44 44 43 42 36 34 34 35 34 32 31 28 27 26 26 26 26 27 26 25 23 22
45 44 44 44 43 44 45 41 36 37 33 32 30 29 28 27 25 25 26 25 26 28 28 27 26 24 21
46 49 46 45 44 43 43 43 43 35 29 30 32 27 28 28 27 27 26 26 27 27 28 26 24 22 21
44 49 46 47 46 43 45 42 38 36 32 34 32 33 28 26 27 25 25 24 25 27 29 24 24 23 24
40 44 43 42 46 39 38 35 36 38 38 34 37 36 25 25 26 24 23 24 25 26 25 21 21 21 24
38 39 43 42 41 48 43 40 42 30 35 33 35 31 23 29 25 24 23 19 20 22 22 22 20 24 26
43 43 41 44 47 44 51 50 47 42 34 21 32 32 30 14 16 17 20 20 18 18 20 20 19 20 23
38 40 39 41 46 46 46 49 48 44 35 32 31 31 30 27 27 23 22 22 20 21 22 22 20 23 26
36 39 39 39 42 45 41 41 41 43 35 39 32 28 28 28 28 25 23 23 24 24 24 23 24 23 26
36 35 35 38 40 43 40 33 30 31 30 33 32 29 30 31 31 31 27 25 20 21 22 23 23 24 24
36 34 34 34 35 39 38 30 24 25 28 30 32 32 32 32 32 30 29 30 29 29 26 27 26 25 26
37 33 30 32 34 33 30 26 23 23 23 25 23 24 26 29 31 33 32 31 28 27 28 29 28 26 24
33 31 26 26 31 28 30 29 24 20 22 26 26 24 26 31 29 25 25 25 25 27 26 27 29 26 21

GFSFLT2_850_spd_156.txt.gz
Wind_Speed
43 39 37 38 41 42 42 38 36 35 34 34 33 30 29 28 27 27 27 27 26 25 22 20 20 16 16
44 43 41 38 39 41 42 42 41 38 36 36 34 34 32 30 29 29 29 28 28 27 24 22 20 19 16
49 46 46 43 41 41 43 43 43 42 40 38 37 36 35 34 32 31 31 30 29 29 26 23 23 21 19
48 50 49 48 45 43 45 45 46 43 44 41 37 36 36 35 33 32 32 31 30 30 27 25 24 22 21
43 45 44 40 40 39 42 44 49 47 45 43 39 36 37 35 33 34 32 32 32 30 28 26 25 24 23
41 42 41 36 39 41 43 42 46 43 42 45 40 38 34 33 30 29 29 29 30 29 29 27 27 26 24
39 40 41 42 39 39 39 42 47 46 33 35 31 34 33 32 31 28 26 28 28 28 27 28 26 24 23
34 37 37 39 38 41 43 45 48 44 38 43 43 42 39 33 30 28 27 28 28 27 27 27 25 24 23
31 35 37 36 36 38 44 43 46 46 48 45 45 43 42 35 33 30 29 27 26 24 25 25 25 24 25
37 38 38 39 37 36 42 42 42 39 44 41 46 40 33 39 34 32 30 27 27 25 24 26 23 23 25
37 38 39 40 39 35 37 41 42 45 47 37 39 40 38 20 20 31 31 31 28 22 20 19 20 21 25
33 35 36 37 37 37 35 37 39 43 42 43 38 34 36 31 25 21 22 21 21 22 20 19 20 21 23
35 37 36 37 38 38 36 35 34 35 41 44 45 38 33 35 30 27 24 23 21 20 19 21 22 22 24
33 36 36 35 37 35 35 31 33 40 35 30 33 33 33 32 27 26 24 23 19 21 21 22 23 24 25
33 34 37 36 35 34 31 26 31 33 29 24 22 27 29 27 28 29 27 27 27 25 24 26 26 27 26
34 33 36 34 33 31 26 25 29 30 27 22 19 19 23 27 26 27 27 27 26 25 25 26 28 28 28
32 33 34 32 30 27 22 22 26 27 25 19 18 20 23 26 23 25 28 29 27 27 26 27 30 29 26